LA8QT Lodingen NO current weather conditions

sailwx.info

Wind from 257 at 12 knots

Air temperature 5.0° C
Dewpoint 2.9° C

Last reported at 2015-Apr-21 05:45 UTC.
Time now 2015-Apr-21 06:32 UTC

Location: N 68°28' E 016°04'.
View on Google Maps.

See reports from other nearby stations

  
Tides and Currents Weather Stations Pressure Air Temp Water Temp Dewpoint Dewpoint Depression Visibility Wind Speed Wind Dir Waves Ship Positions
date/time (UTC)wind fromknots sea level pressurealtimeterstation pressurevisibilityair tempwater tempwave heightnotes
2015-Apr-21 05:45 257 12 5.0
2015-Apr-21 05:30 255 13 4.4
2015-Apr-21 05:15 267 11 4.4
2015-Apr-21 05:00 260 10 4.4
2015-Apr-21 04:45 257 10 4.4
2015-Apr-21 04:30 242 11 4.4
2015-Apr-21 04:15 265 10 4.4
2015-Apr-21 04:00 253 10 4.4
2015-Apr-21 03:45 225 9 4.4
2015-Apr-21 03:30 236 9 5.0
2015-Apr-21 03:15 243 9 5.0
2015-Apr-21 03:00 247 7 5.0
2015-Apr-21 02:45 257 10 5.0
2015-Apr-21 02:30 289 15 5.0
2015-Apr-21 02:15 289 14 5.0
2015-Apr-21 02:00 284 13 5.0
2015-Apr-21 01:45 275 11 5.0
2015-Apr-21 01:29 265 7 5.0
2015-Apr-21 01:15 274 6 5.0
2015-Apr-21 00:59 284 3 5.0
2015-Apr-21 00:44 251 5.6
2015-Apr-21 00:29 206 5.6
2015-Apr-21 00:14 209 5.6
2015-Apr-20 23:59 215 0 5.0
2015-Apr-20 23:44 274 1 5.6
2015-Apr-20 23:29 281 5.6
2015-Apr-20 23:14 282 5.0
2015-Apr-20 22:59 282 5.0
2015-Apr-20 22:44 283 1 5.6
2015-Apr-20 22:29 277 5.0
2015-Apr-20 22:14 277 5.0
2015-Apr-20 21:59 277 5.0
2015-Apr-20 21:44 277 5.0
2015-Apr-20 21:29 278 0 5.0
2015-Apr-20 21:14 274 4 5.0
2015-Apr-20 20:59 274 6 5.0
2015-Apr-20 20:44 278 6 5.0
2015-Apr-20 20:29 278 0 5.0
2015-Apr-20 20:14 278 5.0
2015-Apr-20 19:59 278 0 5.6
2015-Apr-20 19:44 278 4 5.6
2015-Apr-20 19:29 282 5 5.6
2015-Apr-20 19:14 243 0 5.6
2015-Apr-20 18:59 240 3 5.6
2015-Apr-20 18:44 268 5.6
2015-Apr-20 18:29 268 4 5.6
2015-Apr-20 18:14 261 7 5.6
2015-Apr-20 17:59 265 6 5.6
2015-Apr-20 17:44 274 0 5.6
2015-Apr-20 17:29 274 5.6
2015-Apr-20 17:14 274 0 5.6
2015-Apr-20 16:59 274 1 6.1
2015-Apr-20 16:44 272 3 6.1
2015-Apr-20 16:29 268 1 6.1
2015-Apr-20 16:14 267 1 6.1
2015-Apr-20 15:59 264 2 6.1
2015-Apr-20 15:44 261 6.1
2015-Apr-20 15:29 261 3 6.1
2015-Apr-20 15:14 238 5 5.6
2015-Apr-20 14:59 218 6 5.6
2015-Apr-20 14:44 210 6 6.1
2015-Apr-20 14:29 250 3 6.1
2015-Apr-20 14:14 250 6 5.6
2015-Apr-20 13:59 209 8 5.6
2015-Apr-20 13:44 217 6 6.1
2015-Apr-20 13:29 236 8 6.1
2015-Apr-20 13:14 229 8 6.7
2015-Apr-20 12:59 248 8 6.1
2015-Apr-20 12:44 234 6 6.1
2015-Apr-20 12:29 239 6 6.1
2015-Apr-20 12:14 235 4 6.1
2015-Apr-20 11:59 238 3 6.1
2015-Apr-20 11:44 230 5 6.1
2015-Apr-20 11:29 251 6 6.1
2015-Apr-20 11:14 267 7 6.7
2015-Apr-20 10:59 274 11 5.6
2015-Apr-20 10:44 265 8 5.6
2015-Apr-20 10:29 279 9 5.6
2015-Apr-20 10:14 267 12 5.0
2015-Apr-20 09:59 274 14 5.0
2015-Apr-20 09:44 265 13 5.6
2015-Apr-20 09:29 267 13 5.6
2015-Apr-20 09:14 269 13 5.6
2015-Apr-20 08:59 279 13 5.6
2015-Apr-20 08:44 246 10 5.6
2015-Apr-20 08:29 258 9 5.6
2015-Apr-20 08:14 239 7 5.0
2015-Apr-20 07:58 237 7 5.6
2015-Apr-20 07:43 243 6 5.0
2015-Apr-20 07:28 248 7 5.6
2015-Apr-20 07:13 264 6 5.6
2015-Apr-20 06:58 256 6 5.6
2015-Apr-20 06:43 258 7 5.6
2015-Apr-20 06:28 269 7 5.6
2015-Apr-20 06:13 262 5 5.6
2015-Apr-20 05:58 256 6 5.0
2015-Apr-20 05:43 257 6 5.0
2015-Apr-20 05:28 271 3 5.6
2015-Apr-20 05:13 284 5.0
2015-Apr-20 04:58 284 2 5.0
2015-Apr-20 04:43 289 1 5.0
2015-Apr-20 04:28 289 2 5.0
2015-Apr-20 04:13 294 3 5.0
2015-Apr-20 03:58 294 4 5.0
2015-Apr-20 03:43 294 3 5.0
2015-Apr-20 03:28 294 1 5.0
2015-Apr-20 03:13 294 0 5.0
2015-Apr-20 02:58 294 5.0
2015-Apr-20 02:43 294 2 5.0
2015-Apr-20 02:28 294 0 5.0
2015-Apr-20 02:13 294 2 5.0
2015-Apr-20 01:58 294 2 5.0
2015-Apr-20 01:43 294 3 5.0
2015-Apr-20 01:28 294 3 4.4
2015-Apr-20 01:13 294 4 4.4
2015-Apr-20 00:58 294 4 5.0
2015-Apr-20 00:43 294 4 5.0
2015-Apr-20 00:28 299 4 4.4
2015-Apr-20 00:13 289 3 4.4
2015-Apr-19 23:58 289 3 4.4
2015-Apr-19 23:43 289 0 4.4
2015-Apr-19 23:28 289 1 4.4
2015-Apr-19 23:13 289 4.4
2015-Apr-19 22:58 289 4.4
2015-Apr-19 22:43 289 3.9
2015-Apr-19 22:28 289 3.9
2015-Apr-19 22:13 289 3.9
2015-Apr-19 21:58 289 3.9
2015-Apr-19 21:43 289 3.9
2015-Apr-19 21:28 289 3.9
2015-Apr-19 21:13 289 3.9
2015-Apr-19 20:58 289 3.9
2015-Apr-19 20:43 289 3.9
2015-Apr-19 20:28 289 4.4
2015-Apr-19 20:13 289 3.9
2015-Apr-19 19:58 289 3.9
2015-Apr-19 19:43 289 3.9
2015-Apr-19 19:28 289 4.4
2015-Apr-19 19:13 289 0 4.4
2015-Apr-19 18:58 289 2 5.0
2015-Apr-19 18:43 322 3 5.6
2015-Apr-19 18:28 004 0 5.6
2015-Apr-19 18:13 005 2 6.1
2015-Apr-19 17:58 340 5.6
2015-Apr-19 17:28 355 6 6.1
2015-Apr-19 17:13 345 5 6.1
2015-Apr-19 16:58 261 1 6.1
2015-Apr-19 16:43 166 0 6.1
2015-Apr-19 16:28 163 3 6.1
2015-Apr-19 16:13 350 6.7
2015-Apr-19 15:58 353 2 6.1
2015-Apr-19 15:43 357 5 6.1
2015-Apr-19 15:27 353 3 6.7
2015-Apr-19 15:12 006 6 6.7
2015-Apr-19 14:57 016 4 7.2
2015-Apr-19 14:42 356 3 7.2
2015-Apr-19 14:27 358 6 7.2
2015-Apr-19 14:12 345 3 7.2
2015-Apr-19 13:57 327 8 7.2
2015-Apr-19 13:42 350 8 7.2
2015-Apr-19 13:27 005 5 7.2
2015-Apr-19 13:12 322 12 7.2
2015-Apr-19 12:57 350 12 7.2
2015-Apr-19 12:42 311 3 7.8
2015-Apr-19 12:27 008 5 7.2
2015-Apr-19 12:12 354 6 7.8
2015-Apr-19 11:57 005 8 7.2
2015-Apr-19 11:42 340 11 7.2
2015-Apr-19 11:27 005 14 7.2
2015-Apr-19 11:12 001 13 7.2
2015-Apr-19 10:57 355 13 7.2
2015-Apr-19 10:42 340 14 7.2
2015-Apr-19 10:27 031 13 7.2
2015-Apr-19 10:12 359 10 7.2
2015-Apr-19 09:57 334 9 7.2
2015-Apr-19 09:42 003 9 7.2
2015-Apr-19 09:27 353 8 7.2
2015-Apr-19 09:12 327 12 7.2
2015-Apr-19 08:57 322 10 7.2
2015-Apr-19 08:42 307 10 7.2
2015-Apr-19 08:27 321 8 7.2
2015-Apr-19 08:12 310 9 7.2
2015-Apr-19 07:57 316 11 7.2
2015-Apr-19 07:42 289 10 6.7
2015-Apr-19 07:27 343 10 6.7
2015-Apr-19 07:12 322 10 6.7
2015-Apr-19 06:57 340 8 6.7
2015-Apr-19 06:42 330 6 6.7
2015-Apr-19 06:27 318 3 6.7
2015-Apr-19 06:12 324 8 6.7